When you browse on this site, cookies collect data to enhance your experience and personalize the content and advertising you see.
Visit our Privacy Policy to learn more. By continuing to use the site, you agree to this use of cookies and data.
  • In United Kingdom
  • List of Countries
  • For 7 days
  • Water Temperature
  • Satellite Maps
  • Weather Map
  • Weather Widgets
  • user-avatar
    Login

    Hourly Weather Yakkabog

    Today, 21 June, Friday

    Time Temperature Precipitation Wind Pressure Humidity
    00:00 +26°C° 0 mm 2 mps 705 mmHg 24%
    01:00 +26°C° 0 mm 2 mps 705 mmHg 25%
    02:00 +26°C° 0 mm 2 mps 705 mmHg 26%
    03:00 +25°C° 0 mm 2 mps 705 mmHg 27%
    04:00 +25°C° 0 mm 2 mps 704 mmHg 27%
    05:00 +27°C° 0 mm 2 mps 705 mmHg 25%
    06:00 +29°C° 0 mm 2 mps 705 mmHg 23%
    07:00 +31°C° 0 mm 2 mps 706 mmHg 20%
    08:00 +34°C° 0 mm 2 mps 706 mmHg 18%
    09:00 +35°C° 0 mm 2 mps 706 mmHg 17%
    10:00 +37°C° 0 mm 2 mps 707 mmHg 15%
    11:00 +38°C° 0 mm 3 mps 706 mmHg 14%
    12:00 +39°C° 0 mm 3 mps 706 mmHg 13%
    13:00 +41°C° 0 mm 4 mps 706 mmHg 12%
    14:00 +41°C° 0 mm 4 mps 706 mmHg 12%
    15:00 +40°C° 0 mm 5 mps 705 mmHg 11%
    16:00 +40°C° 0 mm 5 mps 705 mmHg 11%
    17:00 +37°C° 0 mm 5 mps 705 mmHg 12%
    18:00 +35°C° 0 mm 4 mps 705 mmHg 13%
    19:00 +33°C° 0 mm 4 mps 705 mmHg 14%
    20:00 +31°C° 0 mm 3 mps 705 mmHg 15%
    21:00 +29°C° 0 mm 2 mps 705 mmHg 16%
    22:00 +28°C° 0 mm 2 mps 705 mmHg 17%
    23:00 +28°C° 0 mm 2 mps 705 mmHg 18%

    Tomorrow, 22 June, Saturday

    Time Temperature Precipitation Wind Pressure Humidity
    00:00 +27°C° 0 mm 2 mps 705 mmHg 19%
    01:00 +26°C° 0 mm 2 mps 705 mmHg 19%
    02:00 +26°C° 0 mm 1 mps 705 mmHg 20%
    03:00 +25°C° 0 mm 1 mps 705 mmHg 21%
    04:00 +25°C° 0 mm 1 mps 704 mmHg 21%
    05:00 +27°C° 0 mm 1 mps 705 mmHg 20%
    06:00 +29°C° 0 mm 1 mps 706 mmHg 18%
    07:00 +31°C° 0 mm 1 mps 706 mmHg 16%
    08:00 +34°C° 0 mm 2 mps 706 mmHg 15%
    09:00 +35°C° 0 mm 2 mps 707 mmHg 14%
    10:00 +37°C° 0 mm 3 mps 707 mmHg 12%
    11:00 +38°C° 0 mm 3 mps 707 mmHg 12%
    12:00 +38°C° 0 mm 3 mps 707 mmHg 11%
    13:00 +40°C° 0 mm 4 mps 707 mmHg 11%
    14:00 +40°C° 0 mm 5 mps 707 mmHg 12%
    15:00 +40°C° 0 mm 5 mps 706 mmHg 12%
    16:00 +39°C° 0 mm 6 mps 706 mmHg 13%
    17:00 +36°C° 0 mm 6 mps 706 mmHg 15%
    18:00 +35°C° 0 mm 5 mps 706 mmHg 17%
    19:00 +33°C° 0 mm 5 mps 706 mmHg 19%
    20:00 +32°C° 0 mm 4 mps 706 mmHg 20%
    21:00 +30°C° 0 mm 4 mps 706 mmHg 21%
    22:00 +28°C° 0 mm 3 mps 706 mmHg 22%
    23:00 +28°C° 0 mm 3 mps 706 mmHg 23%

    Day after tomorrow, 23 June, Sunday

    Time Temperature Precipitation Wind Pressure Humidity
    00:00 +27°C° 0 mm 3 mps 706 mmHg 24%
    01:00 +27°C° 0 mm 3 mps 705 mmHg 25%
    02:00 +26°C° 0 mm 3 mps 705 mmHg 26%
    03:00 +26°C° 0 mm 3 mps 706 mmHg 27%
    04:00 +25°C° 0 mm 3 mps 706 mmHg 27%
    05:00 +27°C° 0 mm 4 mps 706 mmHg 25%
    06:00 +29°C° 0 mm 5 mps 707 mmHg 23%
    07:00 +32°C° 0 mm 5 mps 707 mmHg 20%
    08:00 +33°C° 0 mm 5 mps 707 mmHg 19%
    09:00 +35°C° 0 mm 5 mps 707 mmHg 17%
    10:00 +36°C° 0 mm 5 mps 708 mmHg 15%
    11:00 +37°C° 0 mm 5 mps 708 mmHg 15%
    12:00 +39°C° 0 mm 5 mps 707 mmHg 14%
    13:00 +40°C° 0 mm 4 mps 707 mmHg 13%
    14:00 +39°C° 0 mm 5 mps 707 mmHg 14%
    15:00 +39°C° 0 mm 6 mps 707 mmHg 14%
    16:00 +39°C° 0 mm 6 mps 707 mmHg 15%
    17:00 +36°C° 0 mm 6 mps 707 mmHg 17%
    18:00 +34°C° 0 mm 6 mps 706 mmHg 19%
    19:00 +32°C° 0 mm 5 mps 706 mmHg 21%
    20:00 +30°C° 0 mm 5 mps 706 mmHg 23%
    21:00 +29°C° 0 mm 4 mps 706 mmHg 25%
    22:00 +28°C° 0 mm 3 mps 706 mmHg 27%
    23:00 +28°C° 0 mm 3 mps 706 mmHg 27%

    24 June, Monday

    Time Temperature Precipitation Wind Pressure Humidity
    00:00 +27°C° 0 mm 4 mps 706 mmHg 28%
    01:00 +27°C° 0 mm 4 mps 706 mmHg 28%
    02:00 +26°C° 0 mm 3 mps 706 mmHg 28%
    03:00 +26°C° 0 mm 3 mps 706 mmHg 28%
    04:00 +26°C° 0 mm 2 mps 706 mmHg 28%
    05:00 +28°C° 0 mm 2 mps 706 mmHg 25%
    06:00 +30°C° 0 mm 2 mps 707 mmHg 22%
    07:00 +32°C° 0 mm 1 mps 707 mmHg 20%
    08:00 +34°C° 0 mm 1 mps 707 mmHg 18%
    09:00 +36°C° 0 mm 1 mps 707 mmHg 15%
    10:00 +37°C° 0 mm 1 mps 707 mmHg 13%
    11:00 +39°C° 0 mm 2 mps 707 mmHg 12%
    12:00 +40°C° 0 mm 3 mps 707 mmHg 12%
    13:00 +40°C° 0 mm 3 mps 707 mmHg 11%
    14:00 +40°C° 0 mm 3 mps 706 mmHg 11%
    15:00 +40°C° 0 mm 3 mps 706 mmHg 11%
    16:00 +40°C° 0 mm 3 mps 705 mmHg 11%
    17:00 +38°C° 0 mm 3 mps 705 mmHg 14%
    18:00 +36°C° 0 mm 4 mps 705 mmHg 16%
    19:00 +34°C° 0 mm 4 mps 705 mmHg 18%
    20:00 +33°C° 0 mm 4 mps 705 mmHg 20%
    21:00 +32°C° 0 mm 4 mps 705 mmHg 21%
    22:00 +31°C° 0 mm 3 mps 705 mmHg 22%
    23:00 +30°C° 0 mm 3 mps 705 mmHg 22%

    25 June, Tuesday

    Time Temperature Precipitation Wind Pressure Humidity
    00:00 +30°C° 0 mm 3 mps 705 mmHg 23%
    01:00 +29°C° 0 mm 2 mps 704 mmHg 23%
    02:00 +29°C° 0.1 mm 2 mps 704 mmHg 25%
    03:00 +28°C° 0.1 mm 2 mps 704 mmHg 27%
    04:00 +27°C° 0.1 mm 2 mps 704 mmHg 29%
    05:00 +29°C° 0.3 mm 2 mps 705 mmHg 27%
    06:00 +31°C° 0.3 mm 2 mps 705 mmHg 26%
    07:00 +32°C° 0.3 mm 2 mps 706 mmHg 24%
    08:00 +35°C° 0 mm 2 mps 706 mmHg 20%
    09:00 +37°C° 0 mm 2 mps 706 mmHg 17%
    10:00 +38°C° 0 mm 2 mps 706 mmHg 14%
    11:00 +39°C° 0 mm 3 mps 706 mmHg 13%
    12:00 +40°C° 0 mm 3 mps 706 mmHg 12%
    13:00 +41°C° 0 mm 4 mps 706 mmHg 11%
    14:00 +40°C° 0 mm 5 mps 706 mmHg 14%
    15:00 +39°C° 0 mm 6 mps 705 mmHg 17%
    16:00 +36°C° 0 mm 7 mps 705 mmHg 20%
    17:00 +35°C° 0 mm 6 mps 705 mmHg 22%
    18:00 +34°C° 0 mm 5 mps 705 mmHg 24%
    19:00 +32°C° 0 mm 4 mps 705 mmHg 26%
    20:00 +30°C° 0 mm 4 mps 705 mmHg 26%
    21:00 +29°C° 0 mm 3 mps 705 mmHg 26%
    22:00 +29°C° 0 mm 3 mps 705 mmHg 26%
    23:00 +28°C° 0 mm 3 mps 705 mmHg 26%

    26 June, Wednesday

    Time Temperature Precipitation Wind Pressure Humidity
    00:00 +28°C° 0 mm 2 mps 704 mmHg 25%
    01:00 +28°C° 0 mm 2 mps 704 mmHg 25%
    02:00 +27°C° 0 mm 2 mps 704 mmHg 25%
    03:00 +27°C° 0 mm 2 mps 704 mmHg 25%
    04:00 +27°C° 0 mm 2 mps 704 mmHg 25%
    05:00 +29°C° 0 mm 2 mps 704 mmHg 23%
    06:00 +31°C° 0 mm 2 mps 705 mmHg 21%
    07:00 +33°C° 0 mm 1 mps 705 mmHg 19%
    08:00 +34°C° 0 mm 1 mps 705 mmHg 16%
    09:00 +37°C° 0 mm 2 mps 705 mmHg 14%
    10:00 +38°C° 0 mm 2 mps 705 mmHg 12%
    11:00 +39°C° 0 mm 3 mps 705 mmHg 11%
    12:00 +40°C° 0 mm 3 mps 705 mmHg 10%
    13:00 +42°C° 0 mm 4 mps 705 mmHg 8%
    14:00 +42°C° 0 mm 4 mps 704 mmHg 8%
    15:00 +42°C° 0 mm 4 mps 704 mmHg 8%
    16:00 +42°C° 0 mm 4 mps 704 mmHg 7%
    17:00 +38°C° 0 mm 3 mps 704 mmHg 8%
    18:00 +36°C° 0 mm 3 mps 703 mmHg 10%
    19:00 +34°C° 0 mm 2 mps 703 mmHg 11%
    20:00 +32°C° 0 mm 2 mps 703 mmHg 11%
    21:00 +31°C° 0 mm 2 mps 703 mmHg 12%
    22:00 +30°C° 0 mm 2 mps 703 mmHg 13%
    23:00 +29°C° 0 mm 2 mps 703 mmHg 14%
    Show more